Estación Meteorológica Peña el Pijo (Robertgarden) [ 07/07/20 11:54:25 CEST ]

Fecha Hora Presion(HPa) Temp (°C) Humedad % Rocio (°C) Viento ( m/s) Direccion Lluvia 1Hora(mm) Lluvia 24H(mm) LLuvia Total(mm)
2020-Apr-18 01:09:27 1006.900 - - - - W     39.88
2020-Apr-18 02:09:33 1006.400 - - - - W     39.88
2020-Apr-18 03:09:14 1006.000 - - - - W     39.88
2020-Apr-18 04:09:08 1005.800 - - - - W     39.88
2020-Apr-18 05:09:19 1005.400 - - - - W     39.88
2020-Apr-18 06:09:04 1005.200 - - - - W     39.88
2020-Apr-18 07:09:43 1005.000 - - - - W     39.88
2020-Apr-18 08:09:35 1005.300 - - - - W     39.88
2020-Apr-18 09:09:27 1005.600 - - - - W     39.88
2020-Apr-18 10:09:19 1005.500 - - - - W     39.88
2020-Apr-18 11:08:56 1005.000 - - - - W     39.88
2020-Apr-18 12:09:18 1004.900 - - - - W     39.88
2020-Apr-18 13:09:12 1004.500 - - - - W     39.88
2020-Apr-18 14:09:11 1003.900 - - - - W     39.88
2020-Apr-18 15:09:09 1003.100 - - - - W     39.88
2020-Apr-18 16:09:52 1002.500 - - - - W     39.88
2020-Apr-18 17:09:22 1002.600 - - - - W     39.88
2020-Apr-18 18:09:21 1003.200 - - - - W     39.88
2020-Apr-18 19:09:32 1002.500 - - - - W     39.88
2020-Apr-18 20:08:55 1002.700 - - - - W     39.88
2020-Apr-18 21:09:04 1002.400 - - - - W     39.88
2020-Apr-18 22:08:46 1003.200 - - - - W     39.88
2020-Apr-18 23:09:06 1003.800 - - - - W     39.88

Temperatura Máxima:    Temperatura Mínima:
Presión Máxima:1006.900 Hpa    Presión Mínima:1002.400 Hpa


Volver